STARLINK-2358 (47898 NORAD) Tracking and Keplerian Element Data

This shows tracking and keplerian element data for the satellite.

Feedback or suggestion? Click here.




ElementValue
Catalog47898
NameSTARLINK-2358
Epoch Orbit197
Epoch Day173.91668981
Epoch Year2021
RAAN79.4505
Inclination53.0487
Eccentricity0.0001348
Argument of Perigee68.0399
Mean Anonmoly130.5536
Mean Motion15.50750265
Decay Rate-0.01082723
L11 47898U 21021AQ 21173.91668981 -.01082723 00000-0 -20412-1 0 9999
L22 47898 53.0487 79.4505 0001348 68.0399 130.5536 15.50750265 1972

Live tracking and technical data element details for STARLINK-2358 (NORAD 47898). STARLINK-2358 can be tracked NOW for your location showing map with azimuth and elevation plus other details from your city location.

Track the satellite on the map from your city or location and see movement details for azimuth, elevation, latitude, longitude, range, height, and movement on the map or in text.







IsCatalogInMostPopularTable: catalog: 47898, numindb: 46
Update: records affected: 1



GetName: 47898 STARLINK-2358

Hit Count: updated at: Thu, 24 Jun 2021 03:15:28 GMT